FW9090 Weather Reports


time (UTC)temp
C
wind
direction
speed
KPH
gust
KPH
rain 1hr
cm
rain 24hr
cm
rain mn
cm
humidity
%
barometer
mb
20260902014556 20 281 4.8 16.1 0.00 0.00 0.00 61 1015.5
20260902014027 20 175 1.6 12.9 0.00 0.00 0.00 61 1015.5
20260902013527 20 0 1.6 12.9 0.00 0.00 0.00 61 1015.5
20260902013056 20 250 3.2 19.3 0.00 0.00 0.00 61 1015.5
20260902012531 20 244 3.2 19.3 0.00 0.00 0.00 61 1015.4
20260902012029 20 247 4.8 19.3 0.00 0.00 0.00 60 1015.5
20260902011552 20 245 4.8 19.3 0.00 0.00 0.00 59 1015.4
20260902011031 20 229 6.4 24.1 0.00 0.00 0.00 59 1015.4
20260902010526 20 254 8.0 24.1 0.00 0.00 0.00 59 1015.2
20260902010053 20 193 4.8 20.9 0.00 0.00 0.00 58 1015.3
20260902005526 20 313 8.0 24.1 0.00 0.00 0.00 57 1015.1
20260902005028 20 291 9.7 24.1 0.00 0.00 0.00 58 1015.3
20260902004602 20 282 4.8 19.3 0.00 0.00 0.00 58 1015.2
20260902004027 20 255 8.0 19.3 0.00 0.00 0.00 57 1015.2
20260902003528 21 270 3.2 19.3 0.00 0.00 0.00 56 1015.2
20260902003129 21 286 4.8 19.3 0.00 0.00 0.00 56 1015.2
20260902002528 21 271 4.8 17.7 0.00 0.00 0.00 56 1015.2
20260902002027 21 275 4.8 20.9 0.00 0.00 0.00 56 1015.2
20260902001552 21 196 4.8 20.9 0.00 0.00 0.00 54 1015.3
20260902001027 21 281 4.8 19.3 0.00 0.00 0.00 55 1015.2
20260902000527 21 271 4.8 19.3 0.00 0.00 0.00 55 1015.3
20260902000049 21 219 6.4 17.7 0.00 0.00 0.00 54 1015.2
20260901235528 21 286 4.8 16.1 0.00 0.00 0.00 53 1015.1
20260901235027 21 227 6.4 25.7 0.00 0.00 0.00 54 1015.2
20260901234556 21 281 8.0 25.7 0.00 0.00 0.00 54 1015.3
20260901234028 21 261 4.8 22.5 0.00 0.00 0.00 54 1015.4
20260901233527 21 305 8.0 22.5 0.00 0.00 0.00 53 1015.3
20260901233053 21 300 9.7 20.9 0.00 0.00 0.00 53 1015.4
20260901232527 21 281 11.3 20.9 0.00 0.00 0.00 52 1015.3
20260901232027 21 262 8.0 16.1 0.00 0.00 0.00 52 1015.4
20260901231600 21 264 6.4 19.3 0.00 0.00 0.00 52 1015.4
20260901231031 21 186 8.0 19.3 0.00 0.00 0.00 52 1015.4
20260901230526 21 308 4.8 22.5 0.00 0.00 0.00 52 1015.4
20260901230050 22 266 8.0 22.5 0.00 0.00 0.00 52 1015.4
20260901225618 21 342 8.0 19.3 0.00 0.00 0.00 51 1015.4
20260901225028 21 317 8.0 20.9 0.00 0.00 0.00 51 1015.4
20260901224551 22 224 6.4 20.9 0.00 0.00 0.00 50 1015.5
20260901224026 22 248 8.0 20.9 0.00 0.00 0.00 49 1015.5
20260901223528 22 276 6.4 19.3 0.00 0.00 0.00 50 1015.5
20260901223051 22 308 6.4 19.3 0.00 0.00 0.00 51 1015.5
20260901222531 22 170 8.0 17.7 0.00 0.00 0.00 52 1015.5
20260901222032 22 308 4.8 17.7 0.00 0.00 0.00 52 1015.5
20260901221550 21 270 4.8 17.7 0.00 0.00 0.00 53 1015.5
20260901221028 21 277 6.4 17.7 0.00 0.00 0.00 53 1015.6
20260901220529 21 221 8.0 22.5 0.00 0.00 0.00 53 1015.6
20260901220048 21 188 8.0 27.4 0.00 0.00 0.00 54 1015.6
20260901215527 21 304 8.0 27.4 0.00 0.00 0.00 54 1015.7
20260901215027 21 249 8.0 20.9 0.00 0.00 0.00 54 1015.6
20260901214553 21 165 4.8 22.5 0.00 0.00 0.00 54 1015.8
20260901214031 21 301 8.0 22.5 0.00 0.00 0.00 55 1015.7
20260901213529 21 273 6.4 22.5 0.00 0.00 0.00 56 1015.8
20260901213051 21 242 9.7 22.5 0.00 0.00 0.00 55 1015.7
20260901212526 21 281 8.0 22.5 0.00 0.00 0.00 56 1015.7
20260901212032 22 259 9.7 22.5 0.00 0.00 0.00 55 1015.7
20260901211550 22 271 6.4 22.5 0.00 0.00 0.00 55 1015.6
20260901211028 22 309 8.0 22.5 0.00 0.00 0.00 53 1015.6
20260901210529 22 204 4.8 27.4 0.00 0.00 0.00 53 1015.6
20260901210101 21 264 9.7 27.4 0.00 0.00 0.00 51 1015.6
20260901205527 21 352 4.8 16.1 0.00 0.00 0.00 51 1015.6
20260901205033 21 292 4.8 20.9 0.00 0.00 0.00 51 1015.6
20260901204553 21 140 6.4 20.9 0.00 0.00 0.00 52 1015.6
20260901204028 21 225 6.4 16.1 0.00 0.00 0.00 53 1015.6
20260901203528 21 229 4.8 22.5 0.00 0.00 0.00 52 1015.7
20260901203047 21 258 6.4 22.5 0.00 0.00 0.00 53 1015.6
20260901202530 21 239 4.8 19.3 0.00 0.00 0.00 53 1015.8
20260901202027 21 321 4.8 19.3 0.00 0.00 0.00 52 1015.9
20260901201546 21 209 3.2 19.3 0.00 0.00 0.00 52 1015.9
20260901201028 21 217 3.2 19.3 0.00 0.00 0.00 52 1016.0
20260901200530 21 273 6.4 19.3 0.00 0.00 0.00 52 1016.0
20260901200053 20 0 4.8 17.7 0.00 0.00 0.00 53 1016.2
20260901195529 20 217 3.2 14.5 0.00 0.00 0.00 54 1016.3
20260901195029 20 282 3.2 14.5 0.00 0.00 0.00 54 1016.3
20260901194602 20 267 4.8 14.5 0.00 0.00 0.00 53 1016.2
20260901194033 20 296 8.0 16.1 0.00 0.00 0.00 54 1016.2
20260901193528 20 302 1.6 22.5 0.00 0.00 0.00 56 1016.2
20260901193047 20 237 4.8 22.5 0.00 0.00 0.00 57 1016.4
20260901192527 20 291 4.8 19.3 0.00 0.00 0.00 57 1016.3
20260901192027 20 266 4.8 17.7 0.00 0.00 0.00 58 1016.4
20260901191603 20 175 6.4 17.7 0.00 0.00 0.00 58 1016.3
20260901191029 20 336 4.8 16.1 0.00 0.00 0.00 58 1016.2
20260901190528 20 303 4.8 16.1 0.00 0.00 0.00 57 1016.3
20260901190115 20 304 6.4 16.1 0.00 0.00 0.00 58 1016.3
20260901185527 20 224 1.6 22.5 0.00 0.00 0.00 58 1016.3
20260901185028 19 202 4.8 22.5 0.00 0.00 0.00 58 1016.3
20260901184558 19 264 8.0 22.5 0.00 0.00 0.00 60 1016.4
20260901184026 19 257 3.2 14.5 0.00 0.00 0.00 61 1016.3
20260901183528 18 324 6.4 16.1 0.00 0.00 0.00 61 1016.3
20260901183059 18 313 4.8 16.1 0.00 0.00 0.00 61 1016.4
20260901182529 19 235 4.8 14.5 0.00 0.00 0.00 62 1016.4
20260901182030 19 251 4.8 17.7 0.00 0.00 0.00 63 1016.4
20260901181557 19 288 6.4 17.7 0.00 0.00 0.00 62 1016.3
20260901181028 20 190 3.2 16.1 0.00 0.00 0.00 62 1016.2
20260901180527 19 248 3.2 9.7 0.00 0.00 0.00 63 1016.3
20260901180051 19 118 1.6 11.3 0.00 0.00 0.00 63 1016.1
20260901175527 18 0 3.2 11.3 0.00 0.00 0.00 64 1016.2
20260901175028 18 267 4.8 16.1 0.00 0.00 0.00 65 1016.2
20260901174600 18 0 1.6 16.1 0.00 0.00 0.00 64 1016.1
20260901174029 18 213 6.4 16.1 0.00 0.00 0.00 64 1016.1
20260901173529 18 173 4.8 11.3 0.00 0.00 0.00 65 1015.9
20260901173054 18 213 3.2 12.9 0.00 0.00 0.00 66 1015.9
20260901172529 18 166 3.2 14.5 0.00 0.00 0.00 67 1015.9
20260901172028 18 270 1.6 14.5 0.00 0.00 0.00 67 1015.9
20260901171613 18 217 4.8 14.5 0.00 0.00 0.00 67 1015.9
20260901171028 18 276 6.4 14.5 0.00 0.00 0.00 67 1015.9
20260901170529 18 167 4.8 12.9 0.00 0.00 0.00 67 1015.8
20260901170058 18 188 3.2 11.3 0.00 0.00 0.00 65 1015.8
20260901165533 18 177 1.6 12.9 0.00 0.00 0.00 67 1015.8
20260901165030 18 297 4.8 12.9 0.00 0.00 0.00 67 1015.7
20260901164615 18 213 4.8 12.9 0.00 0.00 0.00 66 1015.7
20260901164028 17 229 0.0 12.9 0.00 0.00 0.00 68 1015.7
20260901163527 17 221 3.2 12.9 0.00 0.00 0.00 70 1015.7
20260901163115 17 306 1.6 12.9 0.00 0.00 0.00 71 1015.7
20260901162527 17 209 1.6 11.3 0.00 0.00 0.00 72 1015.8
20260901162026 17 239 3.2 11.3 0.00 0.00 0.00 72 1015.7
20260901161552 17 174 3.2 11.3 0.00 0.00 0.00 73 1015.7
20260901161030 17 0 3.2 9.7 0.00 0.00 0.00 74 1015.7
20260901160527 17 0 3.2 11.3 0.00 0.00 0.00 75 1015.7
20260901160100 17 291 3.2 11.3 0.00 0.00 0.00 75 1015.5
20260901155528 17 238 1.6 11.3 0.00 0.00 0.00 75 1015.5
20260901155028 17 213 0.0 9.7 0.00 0.00 0.00 76 1015.4
20260901154554 17 295 1.6 9.7 0.00 0.00 0.00 76 1015.3
20260901154029 17 238 3.2 16.1 0.00 0.00 0.00 76 1015.3
20260901153530 16 0 3.2 16.1 0.00 0.00 0.00 77 1015.3
20260901153059 16 214 6.4 16.1 0.00 0.00 0.00 77 1015.3
20260901152528 16 153 3.2 12.9 0.00 0.00 0.00 78 1015.3
20260901152028 16 281 3.2 12.9 0.00 0.00 0.00 78 1015.2
20260901151557 16 274 6.4 12.9 0.00 0.00 0.00 78 1015.1
20260901151029 16 181 3.2 12.9 0.00 0.00 0.00 78 1015.1
20260901150528 16 138 3.2 12.9 0.00 0.00 0.00 78 1015.0
20260901150055 16 200 3.2 11.3 0.00 0.00 0.00 78 1015.0
20260901145529 16 231 1.6 8.0 0.00 0.00 0.00 78 1015.0
20260901145027 16 253 3.2 11.3 0.00 0.00 0.00 78 1014.9
20260901144551 16 232 3.2 11.3 0.00 0.00 0.00 78 1014.9
20260901144034 16 0 1.6 8.0 0.00 0.00 0.00 79 1014.9
20260901143529 16 0 3.2 8.0 0.00 0.00 0.00 79 1014.7
20260901143047 16 0 1.6 8.0 0.00 0.00 0.00 79 1014.7
20260901142530 16 206 0.0 8.0 0.00 0.00 0.00 79 1014.6
20260901142028 16 209 1.6 8.0 0.00 0.00 0.00 79 1014.6
20260901141547 16 0 1.6 6.4 0.00 0.00 0.00 79 1014.5
20260901141027 16 197 1.6 8.0 0.00 0.00 0.00 79 1014.4
20260901140529 16 0 3.2 8.0 0.00 0.00 0.00 79 1014.3
20260901140100 16 0 3.2 8.0 0.00 0.00 0.00 79 1014.4
20260901135528 16 203 0.0 14.5 0.00 0.00 0.00 79 1014.3
20260901135031 16 223 3.2 14.5 0.00 0.00 0.00 79 1014.2
20260901134600 16 238 1.6 9.7 0.00 0.00 0.00 79 1014.3
20260901134028 16 207 1.6 11.3 0.00 0.00 0.00 79 1014.1
20260901133528 16 203 3.2 11.3 0.00 0.00 0.00 80 1014.2
20260901133101 16 221 1.6 8.0 0.00 0.00 0.00 80 1014.2
20260901132526 16 0 0.0 8.0 0.00 0.00 0.00 80 1014.2
20260901132033 16 169 0.0 8.0 0.00 0.00 0.00 80 1014.0
20260901131552 16 188 1.6 6.4 0.00 0.00 0.00 80 1014.1
20260901131030 16 218 0.0 6.4 0.00 0.00 0.00 80 1014.0
20260901130529 16 0 0.0 6.4 0.00 0.00 0.00 80 1014.0
20260901130053 16 219 0.0 6.4 0.00 0.00 0.00 80 1014.1
20260901125530 16 0 0.0 8.0 0.00 0.00 0.00 80 1014.1
20260901125029 16 235 3.2 8.0 0.00 0.00 0.00 80 1014.1
20260901124551 16 202 1.6 8.0 0.00 0.00 0.00 80 1013.9
20260901124026 16 0 1.6 8.0 0.00 0.00 0.00 80 1014.0
20260901123526 16 212 0.0 9.7 0.00 0.00 0.00 79 1013.9
20260901123050 16 0 1.6 11.3 0.00 0.00 0.00 79 1013.9
20260901122529 16 195 0.0 11.3 0.00 0.00 0.00 79 1013.7
20260901122029 16 174 3.2 9.7 0.00 0.00 0.00 79 1013.8
20260901121557 16 181 1.6 11.3 0.00 0.00 0.00 79 1013.6
20260901121029 16 219 1.6 11.3 0.00 0.00 0.00 79 1013.6
20260901120527 16 227 3.2 11.3 0.00 0.00 0.00 79 1013.6
20260901120054 16 217 1.6 11.3 0.00 0.00 0.00 78 1013.7
20260901115529 16 213 3.2 11.3 0.00 0.00 0.00 78 1013.6
20260901115029 16 188 3.2 11.3 0.00 0.00 0.00 78 1013.8
20260901114601 16 203 1.6 6.4 0.00 0.00 0.00 78 1013.8
20260901114029 16 178 1.6 6.4 0.00 0.00 0.00 78 1013.9
20260901113529 16 0 0.0 12.9 0.00 0.00 0.00 77 1013.9
20260901113103 16 0 4.8 12.9 0.00 0.00 0.00 77 1013.8
20260901112529 16 207 3.2 11.3 0.00 0.00 0.00 77 1013.8
20260901112029 16 217 1.6 14.5 0.00 0.00 0.00 77 1013.9
20260901111609 16 151 3.2 14.5 0.00 0.00 0.00 77 1014.0
20260901111030 16 226 6.4 14.5 0.00 0.00 0.00 76 1014.0
20260901110529 16 232 4.8 11.3 0.00 0.00 0.00 76 1013.9
20260901110055 16 217 1.6 8.0 0.00 0.00 0.00 75 1013.8
20260901105529 16 213 0.0 8.0 0.00 0.00 0.00 75 1013.8
20260901105033 16 0 1.6 14.5 0.00 0.00 0.00 75 1013.8
20260901104600 16 178 1.6 16.1 0.00 0.00 0.00 75 1013.6
20260901104030 16 178 4.8 16.1 0.00 0.00 0.00 75 1013.6
20260901103530 16 218 1.6 12.9 0.00 0.00 0.00 75 1013.5
20260901103057 16 181 4.8 12.9 0.00 0.00 0.00 75 1013.5
20260901102530 16 197 4.8 11.3 0.00 0.00 0.00 75 1013.6
20260901102026 16 238 3.2 12.9 0.00 0.00 0.00 75 1013.5
20260901101556 16 163 3.2 12.9 0.00 0.00 0.00 75 1013.6
20260901101029 16 0 1.6 8.0 0.00 0.00 0.00 75 1013.5
20260901100532 16 179 0.0 9.7 0.00 0.00 0.00 76 1013.5
20260901100055 16 233 1.6 9.7 0.00 0.00 0.00 76 1013.4
20260901095527 16 240 3.2 11.3 0.00 0.00 0.00 75 1013.4
20260901095027 16 201 4.8 12.9 0.00 0.00 0.00 75 1013.3
20260901094550 16 241 4.8 14.5 0.00 0.00 0.00 75 1013.6
20260901094027 16 211 4.8 14.5 0.00 0.00 0.00 75 1013.5
20260901093526 16 0 3.2 12.9 0.00 0.00 0.00 75 1013.7
20260901093058 16 189 3.2 11.3 0.00 0.00 0.00 75 1013.8
20260901092529 16 203 4.8 11.3 0.00 0.00 0.00 74 1013.8
20260901092028 16 211 3.2 12.9 0.00 0.00 0.00 74 1013.8
20260901091602 16 240 4.8 12.9 0.00 0.00 0.00 74 1013.8
20260901091030 16 205 3.2 16.1 0.00 0.00 0.00 74 1013.7
20260901090529 16 194 4.8 16.1 0.00 0.00 0.00 74 1013.8
20260901090055 16 219 0.0 9.7 0.00 0.00 0.00 74 1013.8
20260901085527 16 0 3.2 9.7 0.00 0.00 0.00 74 1013.8
20260901085031 16 222 0.0 8.0 0.00 0.00 0.00 74 1013.7
20260901084555 16 0 1.6 9.7 0.00 0.00 0.00 74 1013.6
20260901084029 16 192 1.6 17.7 0.00 0.00 0.00 74 1013.6
20260901083530 16 171 3.2 17.7 0.00 0.00 0.00 74 1013.6
20260901083052 16 198 3.2 12.9 0.00 0.00 0.00 74 1013.7
20260901082527 16 167 4.8 12.9 0.00 0.00 0.00 74 1013.6
20260901082032 16 193 4.8 11.3 0.00 0.00 0.00 74 1013.7
20260901081554 16 150 3.2 11.3 0.00 0.00 0.00 74 1013.7
20260901081029 15 196 1.6 11.3 0.00 0.00 0.00 75 1013.7
20260901080528 15 0 3.2 11.3 0.00 0.00 0.00 75 1013.7
20260901080108 15 0 0.0 9.7 0.00 0.00 0.00 75 1013.6
20260901075527 15 205 0.0 9.7 0.00 0.00 0.00 75 1013.6
20260901075028 15 222 1.6 9.7 0.00 0.00 0.00 75 1013.6
20260901074551 15 181 1.6 16.1 0.00 0.00 0.00 74 1013.5
20260901074027 15 215 1.6 16.1 0.00 0.00 0.00 74 1013.5
20260901073527 15 198 4.8 16.1 0.00 0.00 0.00 74 1013.5
20260901073046 15 198 1.6 9.7 0.00 0.00 0.00 74 1013.5
20260901072528 15 161 1.6 12.9 0.00 0.00 0.00 74 1013.5
20260901072029 15 0 4.8 12.9 0.00 0.00 0.00 74 1013.6
20260901071601 15 169 6.4 16.1 0.00 0.00 0.00 74 1013.6
20260901071027 15 208 4.8 16.1 0.00 0.00 0.00 74 1013.6
20260901070528 15 196 3.2 14.5 0.00 0.00 0.00 74 1013.6
20260901070059 15 0 1.6 19.3 0.00 0.00 0.00 74 1013.7
20260901065529 15 221 6.4 19.3 0.00 0.00 0.00 73 1013.6
20260901065027 15 255 3.2 14.5 0.00 0.00 0.00 74 1013.7
20260901064605 15 0 3.2 16.1 0.00 0.00 0.00 74 1013.7
20260901064029 15 197 6.4 16.1 0.00 0.00 0.00 74 1013.7
20260901063529 15 217 4.8 12.9 0.00 0.00 0.00 74 1013.7
20260901063112 15 219 1.6 12.9 0.00 0.00 0.00 74 1013.7
20260901062532 15 249 1.6 12.9 0.00 0.00 0.00 74 1013.7
20260901062029 15 195 3.2 12.9 0.00 0.00 0.00 74 1013.8
20260901061555 15 112 1.6 12.9 0.00 0.00 0.00 75 1013.8
20260901061029 15 0 3.2 16.1 0.00 0.00 0.00 75 1013.9
20260901060533 16 186 4.8 19.3 0.00 0.00 0.00 75 1013.8
20260901060059 16 204 8.0 19.3 0.00 0.00 0.00 75 1013.9
20260901055528 15 193 1.6 22.5 0.00 0.00 0.00 75 1014.0
20260901055027 16 195 6.4 25.7 0.00 0.00 0.00 74 1013.9
20260901054552 15 205 6.4 25.7 0.00 0.00 0.00 74 1014.0
20260901054030 15 192 3.2 20.9 0.00 0.00 0.00 75 1014.0
20260901053529 15 210 6.4 20.9 0.00 0.00 0.00 75 1013.8
20260901053100 15 207 3.2 11.3 0.00 0.00 0.00 74 1013.7
20260901052527 15 202 3.2 9.7 0.00 0.00 0.00 75 1013.8
20260901052029 15 219 1.6 9.7 0.00 0.00 0.00 75 1013.9
20260901051600 15 193 3.2 16.1 0.00 0.00 0.00 75 1013.8
20260901051027 15 259 3.2 16.1 0.00 0.00 0.00 74 1013.9
20260901050529 15 224 4.8 16.1 0.00 0.00 0.00 74 1013.7
20260901050055 15 213 1.6 12.9 0.00 0.00 0.00 74 1013.7
20260901045526 15 231 1.6 16.1 0.00 0.00 0.00 74 1013.8
20260901045029 15 215 1.6 16.1 0.00 0.00 0.00 74 1013.8
20260901044551 15 203 3.2 16.1 0.00 0.00 0.00 74 1013.7
20260901044034 15 207 3.2 16.1 0.00 0.00 0.00 74 1013.7
20260901043529 15 190 4.8 16.1 0.00 0.00 0.00 74 1013.7
20260901043052 15 215 1.6 12.9 0.00 0.00 0.00 74 1013.8
20260901042527 15 202 3.2 14.5 0.00 0.00 0.00 74 1013.7
20260901042027 16 0 3.2 14.5 0.00 0.00 0.00 74 1013.6
20260901041549 16 244 4.8 14.5 0.00 0.00 0.00 74 1013.8
20260901041027 16 273 4.8 14.5 0.00 0.00 0.00 74 1013.7
20260901040526 16 225 6.4 14.5 0.00 0.00 0.00 74 1013.6
20260901035526 16 279 1.6 9.7 0.00 0.00 0.00 75 1013.5
20260901035026 16 264 3.2 9.7 0.00 0.00 0.00 74 1013.4
20260901034554 16 0 1.6 12.9 0.00 0.00 0.00 74 1013.4
20260901034029 16 190 3.2 12.9 0.00 0.00 0.00 74 1013.3
20260901033528 16 268 3.2 14.5 0.00 0.00 0.00 74 1013.2
20260901033048 16 257 6.4 16.1 0.00 0.00 0.00 74 1013.2
20260901032527 16 294 4.8 19.3 0.00 0.00 0.00 74 1013.1
20260901032027 16 217 4.8 19.3 0.00 0.00 0.00 74 1013.1
20260901031550 16 188 8.0 20.9 0.00 0.00 0.00 74 1013.0
20260901031027 16 216 4.8 20.9 0.00 0.00 0.00 74 1012.9
20260901030529 16 0 4.8 16.1 0.00 0.00 0.00 74 1012.9
20260901030055 16 181 3.2 14.5 0.00 0.00 0.00 74 1012.9
20260901025531 16 252 4.8 14.5 0.00 0.00 0.00 74 1012.9
20260901025032 16 261 4.8 17.7 0.00 0.00 0.00 74 1012.9
20260901024554 16 0 6.4 17.7 0.00 0.00 0.00 74 1012.9
20260901024031 16 0 3.2 24.1 0.00 0.00 0.00 74 1013.0
20260901023528 16 169 4.8 24.1 0.00 0.00 0.00 74 1012.8
20260901023055 16 247 4.8 17.7 0.00 0.00 0.00 73 1012.8
20260901022528 16 0 4.8 17.7 0.00 0.00 0.00 73 1012.9
20260901022029 16 234 4.8 17.7 0.00 0.00 0.00 73 1012.8
20260901021553 16 350 3.2 19.3 0.00 0.00 0.00 73 1012.8
20260901021028 16 196 6.4 24.1 0.00 0.00 0.00 73 1012.8
20260901020529 16 321 9.7 27.4 0.00 0.00 0.00 73 1012.8
20260901020051 16 241 4.8 27.4 0.00 0.00 0.00 73 1012.7
20260901015528 16 213 8.0 19.3 0.00 0.00 0.00 72 1012.7
20260901015031 16 188 8.0 17.7 0.00 0.00 0.00 72 1012.8